Location: Bern�tre
(50.1974°N, 2.0915°E)
Time: 05:42:22
(UTC+00:00)

USA 238 DEB - Pass Details

Date: 18 September 2020
Orbit: 1006 x 1206 km, 63.4° (Epoch: 15 October)

Event Time Altitude Azimuth Distance (km) Brightness Sun altitude
Rises 19:30:50 0° 316° (NW) 3,924 7.9 -15.3°
Reaches altitude 10° 19:33:27 10° 317° (NW) 2,992 7.1 -15.7°
Maximum altitude 19:40:40 86° 47° (NE) 1,164 3.8 -16.8°
Enters shadow 19:45:39 23° 135° (SE) 2,257 4.8 -17.5°
